Regional Weather Roundup
Issued by NWS

Home | Current Version | Previous Version | Text Only | Print | Product List | Glossary Off
Versions: 1 2 3 4 5 6 7 8 9 10 11 12 13 14 15 16 17 18 19 20 21 22 23 24 25 26 27 28 29 30 31 32 33 34 35 36 37 38 39 40 41 42 43 44 45 46 47 48 49 50

000
ASUS43 KOAX 210210
RWRNE

WEATHER ROUNDUP FOR NEBRASKA
NATIONAL WEATHER SERVICE OMAHA NE
900 PM CDT WED SEP 20 2017

NOTES: SATELLITE DATA IS BEING USED TO AUGMENT CLOUD COVER ABOVE
       12000 FEET.
       "FAIR" INDICATES FEW OR NO CLOUDS BELOW 12,000 FEET WITH NO
       SIGNIFICANT WEATHER AND/OR OBSTRUCTIONS TO VISIBILITY.


NEZ001>004-019>022-054>056-210300-
NEBRASKA PANHANDLE

CITY           SKY/WX    TMP DP  RH WIND       PRES   REMARKS
SCOTTSBLUFF    CLEAR     60  39  45 E10       29.82R
ALLIANCE       CLEAR     55  36  48 SE9       29.85R
CHADRON        PTCLDY    66  34  30 S10       29.78S
GORDON         FAIR      63  37  38 SE8       29.84R
KIMBALL        CLEAR     61  32  33 SE9       29.87R
SIDNEY         CLEAR     62  30  29 SE13      29.87S
$$

NEZ057>060-069>072-079>082-210300-
SOUTHWEST NEBRASKA

CITY           SKY/WX    TMP DP  RH WIND       PRES   REMARKS
NORTH PLATTE   CLEAR     56  44  64 E9        29.89R
IMPERIAL       CLEAR     56  34  43 SE7       29.88R
LEXINGTON      CLEAR     65  45  47 SE7       29.90R
MCCOOK         CLEAR     63  38  39 E7        29.89R
OGALLALA       CLEAR     63  33  33 E7        29.88R
$$

NEZ005>010-023>029-035>040-094-210300-
NORTH CENTRAL NEBRASKA

CITY           SKY/WX    TMP DP  RH WIND       PRES   REMARKS
VALENTINE      CLEAR     65  37  35 SE8       29.85R
AINSWORTH      CLEAR     58  42  54 SE8       29.88R
BROKEN BOW     CLEAR     63  45  51 SE6       29.89R
O`NEILL        CLEAR     63  48  59 SE6       29.89R
ORD            CLEAR     58  48  69 E3        29.89R
THEDFORD       CLEAR     62  39  42 SE8       29.89R
$$

NEZ041-046>049-061>064-073>077-083>087-210300-
SOUTH CENTRAL NEBRASKA

CITY           SKY/WX    TMP DP  RH WIND       PRES   REMARKS
GRAND ISLAND   CLEAR     63  49  60 E7        29.90R
AURORA         CLEAR     58  49  73 E6        29.90R
HASTINGS       CLEAR     62  48  60 E5        29.91R
HEBRON         CLEAR     67  54  64 CALM      29.87R
HOLDREGE       CLEAR     60  43  54 E5        29.90R
KEARNEY        CLEAR     60  47  61 E8        29.90R
YORK           CLEAR     63  50  63 E7        29.90R
$$

NEZ011>018-030>034-042>045-210300-
NORTHEAST NEBRASKA

CITY           SKY/WX    TMP DP  RH WIND       PRES   REMARKS
NORFOLK        CLEAR     59  50  72 E3        29.90R
ALBION         CLEAR     58  51  76 CALM      29.91R
BLAIR          CLEAR     67  51  57 N6        29.89R
COLUMBUS       CLEAR     60  52  74 E7        29.90R
FREMONT        CLEAR     63  53  69 CALM      29.89S
TEKAMAH        CLEAR     58  54  86 CALM      29.88R
WAYNE          CLEAR     57  54  91 CALM      29.90R
$$

NEZ050>053-065>068-078-088>093-210300-
SOUTHEAST NEBRASKA

CITY           SKY/WX    TMP DP  RH WIND       PRES   REMARKS
LINCOLN        CLEAR     64  52  64 NE8       29.89R
OMAHA EPPLEY   CLEAR     66  55  67 N8        29.87R
BEATRICE       CLEAR     68  57  66 NE5       29.87R
FALLS CITY     MOCLDY    77  63  61 N5        29.83R
NEBRASKA CITY  CLEAR     69  59  69 N6        29.87R
PLATTSMOUTH    CLEAR     68  56  67 CALM      29.88R
$$

NEZ044-045-051>053-067-210300-
OMAHA AREA

CITY           SKY/WX    TMP DP  RH WIND       PRES   REMARKS
OMAHA EPPLEY   CLEAR     66  55  67 N8        29.87R
BLAIR          CLEAR     67  51  57 N6        29.89R
FREMONT        CLEAR     63  53  69 CALM      29.89S
MILLARD        CLEAR     72  52  49 CALM      29.87S
OFFUTT AFB     CLEAR     68  51  54 N5        29.86R
PLATTSMOUTH    CLEAR     68  56  67 CALM      29.88R
WAHOO          FAIR      63  53  71 NE5       29.88S
$$




USA.gov is the U.S. government's official web portal to all federal, state and local government web resources and services.